Location: ????????
(55.7667°N, 37.4833°E)
Time: 17:51:56
(UTC+00:00)

CZ-4C R/B - Pass Details

Date: 19 May 2025
Orbit: 425 x 537 km, 98.0° (Epoch: 20 June)

Event Time Altitude Azimuth Distance (km) Brightness Sun altitude
Rises 19:38:35 0° 20° (NNE) 2,629 7.5 -10.9°
Reaches altitude 10° 19:40:50 10° 28° (NNE) 1,719 6.4 -11.0°
Maximum altitude 19:44:18 38° 98° (E) 757 3.8 -11.2°
Enters shadow 19:46:33 18° 160° (SSE) 1,241 4.5 -11.4°
